Goshen, IN

6:15 PM EDT on March 24, 2017 (GMT -0400)
Goshen Municipal

Weather History for KGSH - October, 2010

Change the Weather History Date:

Tuesday, October 19, 2010

  Actual Average Record
Temperature  
Mean Temperature 48 °F -  
Max Temperature 61 °F 58 °F 86 °F (1953)
Min Temperature 35 °F 39 °F 27 °F (1948)
Degree Days  
Heating Degree Days 18    
Moisture  
Dew Point 33 °F    
Average Humidity 68    
Maximum Humidity 93    
Minimum Humidity 33    
Precipitation  
Precipitation 0.00 in - - ()
Sea Level Pressure  
Sea Level Pressure 29.99 in    
Wind  
Wind Speed 2 mph (WNW)    
Max Wind Speed 10 mph    
Max Gust Speed 20 mph    
Visibility 10 miles    
Events      
Averages and records for this station are not official NWS values.
T = Trace of Precipitation, MM = Missing Value Source: NWS Daily Summary

Daily Weather History Graph

Daily Weather History Graph

Search for Another Location

Airport or City:

Trip Planner

Search our weather history database for the weather conditions in past years. The results will help you decide how hot, cold, wet, or windy it might be!

Date:

Astronomy

Oct. 19, 2010 Rise Set
Actual Time 7:59 AM EDT 6:55 PM EDT
Civil Twilight 7:31 AM EDT 7:23 PM EDT
Nautical Twilight 6:59 AM EDT 7:56 PM EDT
Astronomical Twilight 6:27 AM EDT 8:28 PM EDT
Moon 5:06 PM EDT (10/19) 4:42 AM EDT (10/19)
Length of Visible Light 11h 52m
Length of Day
10h 56m
Waxing Gibbous, 89% of the Moon is Illuminated
Oct 19
Waxing Gibbous
Oct 22
Full
Oct 30
Last Quarter
Nov 6
New
Nov 13
First Quarter

Hourly Weather History & Observations

Time (EDT) Temp. Windchill Dew Point Humidity Pressure Visibility Wind Dir Wind Speed Gust Speed Precip Events Conditions
12:53 AM 41.0 °F - 34.0 °F 76% 29.99 in 10.0 mi Calm Calm - N/A   Overcast
1:53 AM 39.9 °F - 37.0 °F 89% 29.99 in 10.0 mi Calm Calm - N/A   Clear
2:53 AM 36.0 °F - 34.0 °F 93% 30.00 in 10.0 mi Calm Calm - N/A   Clear
3:53 AM 36.0 °F - 34.0 °F 93% 29.99 in 8.0 mi Calm Calm - N/A   Clear
4:53 AM 35.1 °F - 33.1 °F 92% 29.99 in 10.0 mi Calm Calm - N/A   Mostly Cloudy
5:53 AM 37.0 °F - 35.1 °F 93% 30.00 in 10.0 mi Calm Calm - N/A   Overcast
6:53 AM 36.0 °F - 34.0 °F 93% 30.01 in 10.0 mi Calm Calm - N/A   Scattered Clouds
7:53 AM 36.0 °F - 34.0 °F 93% 30.02 in 10.0 mi Calm Calm - N/A   Overcast
8:53 AM 39.0 °F - 36.0 °F 89% 30.03 in 10.0 mi Calm Calm - N/A   Mostly Cloudy
9:53 AM 46.9 °F - 39.0 °F 74% 30.03 in 10.0 mi WSW 4.6 mph - N/A   Clear
10:53 AM 54.0 °F - 37.9 °F 55% 30.03 in 10.0 mi West 10.4 mph - N/A   Clear
11:53 AM 55.9 °F - 34.0 °F 44% 30.03 in 10.0 mi WNW 10.4 mph - N/A   Clear
12:53 PM 59.0 °F - 33.1 °F 38% 30.01 in 10.0 mi West 10.4 mph - N/A   Clear
1:53 PM 60.1 °F - 32.0 °F 35% 29.99 in 10.0 mi NW 10.4 mph - N/A   Scattered Clouds
3:53 PM 59.0 °F - 30.0 °F 33% 29.96 in 10.0 mi NW 8.1 mph 19.6 mph N/A   Clear
4:53 PM 57.9 °F - 30.0 °F 35% 29.96 in 10.0 mi WNW 10.4 mph - N/A   Clear
5:53 PM 55.9 °F - 30.9 °F 39% 29.96 in 10.0 mi WNW 10.4 mph - N/A   Clear
6:53 PM 50.0 °F - 30.9 °F 48% 29.96 in 10.0 mi WNW 6.9 mph - N/A   Clear
7:53 PM 46.0 °F 44.8 °F 30.9 °F 56% 29.97 in 10.0 mi WNW 3.5 mph - N/A   Clear
8:53 PM 44.1 °F - 30.9 °F 60% 29.96 in 10.0 mi Calm Calm - N/A   Clear
9:53 PM 41.0 °F - 32.0 °F 70% 29.97 in 10.0 mi Calm Calm - N/A   Clear
10:53 PM 39.0 °F - 32.0 °F 76% 29.96 in 10.0 mi Calm Calm - N/A   Clear
11:53 PM 39.9 °F - 34.0 °F 79% 29.96 in 10.0 mi Calm Calm - N/A   Clear